Effective Sunday, March 17, 2024, the National Weather Service National Data Buoy Center will discontinue its Dial-A-Buoy Interactive Voice Response system. For more information, see Service Change Notice 24-06 (PDF).

Station NBGM3 - 8447627 - New Bedford, Barrier Gate, MA Image indicating link to RSS feed of recent meteorological observations for station NBGM3


Conditions at NBGM3 as of
(6:30 pm EST)
2330 GMT on 02/23/2024:
     

Click on the graph icon in the table below to see a time series plot of the last five days of that observation.

5-day plot - Wind Direction Wind Direction (WDIR): E ( 80 deg true )
5-day plot - Wind Speed Wind Speed (WSPD): 2.9 kts
5-day plot - Wind Gust Wind Gust (GST): 5.1 kts
5-day plot - Atmospheric Pressure Atmospheric Pressure (PRES):29.43 in
5-day plot - Air Temperature Air Temperature (ATMP): 41.2 °F
5-day plot - Wind Chill Wind Chill (CHILL): 39.4 °F
5-day plot - Wind Speed at 10 Meters Wind Speed at 10 meters (WSPD10M): 3.9 kts
5-day plot - Wind Speed at 20 Meters Wind Speed at 20 meters (WSPD20M): 3.9 kts
5-day plot -  Wind Speed, Wind Gust and Atmospheric Pressure Combined plot of Wind Speed, Gust, and Air Pressure
NOS Water Level Observation Network Water Level
Previous observations
TIME
(EST)
5-day plot - Wind Direction
WDIR
 
5-day plot - Wind Speed
WSPD
kts
5-day plot - Wind Gust
GST
kts
5-day plot - Wave Height
WVHT
ft
5-day plot - Dominant Wave Period
DPD
sec
5-day plot - Average Wave Period
APD
sec
5-day plot - Mean Wave Direction
MWD
 
5-day plot - Atmospheric Pressure
PRES
in
5-day plot - Pressure Tendency
PTDY
in
5-day plot - Air Temperature
ATMP
°F
5-day plot - Water Temperature
WTMP
°F
5-day plot - Dew Point
DEWP
°F
5-day plot - Salinity
SAL
psu
5-day plot - Visibility
VIS
nmi
5-day plot - Tide (above MLLW)
TIDE
ft
2024-02-23 06:24 pmENE 2.9 5.1----29.42- 41.0-----
2024-02-23 06:18 pm E 2.9 5.1----29.42-------
2024-02-23 06:12 pm E 2.9 6.0----29.42-------
2024-02-23 06:00 pm E 5.1 7.0----29.42-0.02 41.0-----
2024-02-23 05:54 pmESE 6.0 8.0----29.42- 41.0-----
2024-02-23 05:48 pmESE 5.1 7.0----29.41- 40.6-----
2024-02-23 05:42 pmESE 5.1 6.0----29.41- 40.5-----
2024-02-23 05:36 pm SE 5.1 6.0----29.41- 40.5-----
2024-02-23 05:30 pm SE 4.1 4.1----29.41- 40.1-----
2024-02-23 05:24 pmSSE 2.9 4.1----29.41- 40.5-----
2024-02-23 05:18 pmENE 1.9 5.1----29.41- 40.5-----
2024-02-23 05:12 pmNNE 2.9 4.1----29.42- 40.1-----
2024-02-23 05:06 pmESE 2.9 2.9----29.41- 39.9-----
2024-02-23 05:00 pmESE 1.0 1.9----29.42-0.02 39.9-----
2024-02-23 04:54 pmESE 1.9 1.9----29.42- 39.9-----
2024-02-23 04:48 pmESE 1.0 1.9----29.42- 39.7-----
2024-02-23 04:42 pmESE 1.9 4.1----29.42- 39.7-----
2024-02-23 04:36 pm SE 2.9 5.1----29.43- 39.2-----
2024-02-23 04:30 pmSSE 5.1 6.0----29.43- 39.0-----
2024-02-23 04:24 pmSSE 5.1 6.0----29.43- 39.0-----
2024-02-23 04:18 pmSSE 6.0 7.0----29.43- 39.0-----
2024-02-23 04:12 pmSSE 7.0 7.0----29.43- 39.4-----
2024-02-23 04:06 pm SE 6.0 6.0----29.43- 40.1-----
2024-02-23 04:00 pmESE 2.9 2.9----29.43-0.01 40.5-----
2024-02-23 03:54 pmESE 1.9 5.1----29.43- 40.3-----
2024-02-23 03:48 pm SE 5.1 6.0----29.43- 40.3-----
2024-02-23 03:42 pm SE 5.1 5.1----29.43- 40.6-----
2024-02-23 03:36 pm SE 5.1 5.1----29.43- 41.4-----
2024-02-23 03:30 pmESE 2.9 2.9----29.43- 41.7-----
2024-02-23 03:24 pm SE 2.9 4.1----29.43- 41.4-----
2024-02-23 03:18 pm S 4.1 5.1----29.44- 43.2-----
2024-02-23 03:12 pm S 5.1 5.1----29.44- 44.2-----
2024-02-23 03:06 pm S 4.1 4.1----29.44- 45.1-----
2024-02-23 03:00 pm SW 4.1 4.1----29.44-0.04 45.5-----
2024-02-23 02:54 pmSSW 5.1 5.1----29.44- 45.3-----
2024-02-23 02:48 pmSSW 5.1 6.0----29.44- 45.0-----
2024-02-23 02:42 pmSSW 6.0 8.0----29.44- 44.2-----
2024-02-23 02:36 pm S 7.0 8.9----29.44- 43.3-----
2024-02-23 02:30 pm S 5.1 5.1----29.44- 41.9-----
2024-02-23 02:24 pmSSE 4.1 5.1----29.44- 41.9-----
2024-02-23 02:18 pm S 4.1 5.1----29.44- 43.0-----
2024-02-23 02:12 pm SE 4.1 4.1----29.43- 42.4-----
2024-02-23 02:06 pm SE 2.9 4.1----29.43- 44.2-----
2024-02-23 02:00 pmSSE 2.9 4.1----29.44-0.06 45.3-----
2024-02-23 01:54 pmSSW 1.9 4.1----29.44- 48.0-----
2024-02-23 01:48 pmWSW 5.1 5.1----29.44- 48.6-----
2024-02-23 01:42 pmWSW 4.1 6.0----29.44- 48.4-----
2024-02-23 01:36 pmWSW 5.1 7.0----29.44- 48.0-----
2024-02-23 01:30 pmWSW 6.0 8.0----29.44- 47.8-----
2024-02-23 01:24 pmWSW 7.0 8.0----29.44- 47.5-----
2024-02-23 01:18 pm W 4.1 5.1----29.44- 47.5-----
2024-02-23 01:12 pm W 4.1 6.0----29.44- 47.3-----
2024-02-23 01:06 pmWSW 6.0 6.0----29.45- 47.7-----
2024-02-23 01:00 pmWSW 5.1 6.0----29.44-0.06 47.7-----
2024-02-23 12:54 pmWSW 4.1 6.0----29.45- 47.7-----
2024-02-23 12:48 pm W 4.1 5.1----29.45- 47.3-----
2024-02-23 12:42 pmWSW 5.1 7.0----29.46- 47.1-----
2024-02-23 12:36 pm W 5.1 6.0----29.46- 46.8-----
2024-02-23 12:30 pm W 5.1 6.0----29.47- 46.0-----
2024-02-23 12:24 pmWSW 5.1 7.0----29.46- 45.5-----
2024-02-23 12:18 pmWSW 5.1 8.0----29.47- 45.5-----
2024-02-23 12:12 pmWSW 7.0 8.0----29.47- 45.3-----
2024-02-23 12:06 pmWSW 7.0 8.0----29.47- 45.3-----
2024-02-23 12:00 pmWSW 6.0 8.9----29.47-0.04 45.5-----
2024-02-23 11:54 am W 8.0 9.9----29.47- 45.3-----
2024-02-23 11:48 amWSW 6.0 8.0----29.47- 45.3-----
2024-02-23 11:42 amWSW 7.0 8.9----29.48- 45.1-----
2024-02-23 11:36 amWSW 6.0 8.0----29.48- 45.1-----
2024-02-23 11:30 amWSW 7.0 8.0----29.48- 44.8-----
2024-02-23 11:24 am SW 5.1 8.0----29.48- 44.4-----
2024-02-23 11:18 am SW 6.0 8.9----29.49- 44.8-----
2024-02-23 11:12 am SW 6.0 8.0----29.49- 45.0-----
2024-02-23 11:06 amWSW 7.0 8.0----29.49- 45.1-----
2024-02-23 11:00 amWSW 8.0 8.9----29.49-0.04 45.3-----
2024-02-23 10:54 amWSW 7.0 11.1----29.50- 45.3-----
2024-02-23 10:48 amWSW 8.0 11.1----29.50- 45.5-----
2024-02-23 10:42 amWSW 7.0 11.1----29.51- 45.1-----
2024-02-23 10:36 amWSW 8.9 14.0----29.51- 44.8-----
2024-02-23 10:30 amWSW 12.0 15.0----29.50- 44.8-----
2024-02-23 10:24 amWSW 11.1 14.0----29.50- 44.6-----
2024-02-23 10:18 am SW 8.0 12.0----29.50- 44.1-----
2024-02-23 10:12 am SW 8.9 11.1----29.50- 43.5-----
2024-02-23 10:06 am SW 9.9 12.0----29.50- 43.3-----
2024-02-23 10:00 am SW 9.9 12.0----29.50-0.04 42.8-----
2024-02-23 09:54 am SW 9.9 12.0----29.50- 43.0-----
2024-02-23 09:48 am SW 9.9 15.0----29.50- 43.2-----
2024-02-23 09:42 amSSW 15.0 17.1----29.50- 43.5-----
2024-02-23 09:36 am SW 14.0 15.9----29.50- 43.3-----
2024-02-23 09:30 am SW 14.0 15.9----29.51- 43.3-----
2024-02-23 09:24 am SW 13.0 15.9----29.51- 43.5-----
2024-02-23 09:18 am SW 15.0 17.1----29.51- 43.7-----
2024-02-23 09:12 amSSW 14.0 15.9----29.50- 43.5-----
2024-02-23 09:06 amSSW 12.0 14.0----29.51- 43.5-----
2024-02-23 09:00 am SW 12.0 14.0----29.52-0.05 43.2-----
2024-02-23 08:54 amSSW 11.1 15.9----29.52- 43.0-----
2024-02-23 08:48 amSSW 11.1 13.0----29.52- 43.0-----
2024-02-23 08:42 am SW 11.1 14.0----29.53- 43.5-----
2024-02-23 08:36 am SW 8.9 12.0----29.53- 44.6-----
2024-02-23 08:30 am SW 8.0 11.1----29.53- 43.9-----
2024-02-23 08:24 am SW 5.1 7.0----29.53- 42.8-----
2024-02-23 08:18 amSSW 6.0 7.0----29.54- 41.5-----
2024-02-23 08:12 amSSW 5.1 7.0----29.54- 40.3-----
2024-02-23 08:06 amSSW 2.9 4.1----29.54- 40.1-----
2024-02-23 08:00 am S 5.1 8.9----29.54-0.07 40.6-----
2024-02-23 07:54 am S 4.1 6.0----29.53- 41.4-----
2024-02-23 07:48 am S 5.1 8.0----29.54- 41.7-----
2024-02-23 07:42 amSSE 7.0 8.9----29.54- 41.0-----
2024-02-23 07:36 am S 6.0 8.0----29.54- 40.5-----
2024-02-23 07:30 amSSE 5.1 7.0----29.54- 40.8-----
2024-02-23 07:24 amSSE 5.1 7.0----29.54- 40.5-----
2024-02-23 07:18 amSSE 7.0 8.0----29.54- 40.3-----
2024-02-23 07:12 amSSE 6.0 8.0----29.55- 39.9-----
2024-02-23 07:06 amSSE 7.0 8.9----29.55- 39.7-----
2024-02-23 07:00 amSSE 8.0 8.9----29.55-0.09 39.7-----
2024-02-23 06:54 amSSE 7.0 8.0----29.56- 39.7-----
2024-02-23 06:48 amSSE 7.0 8.9----29.56- 39.6-----
2024-02-23 06:42 amSSE 7.0 8.0----29.56- 39.6-----
2024-02-23 06:36 amSSE 7.0 8.0----29.57- 39.6-----
2024-02-23 06:30 amSSE 8.0 9.9----29.56- 39.4-----
2024-02-23 06:24 amSSE 7.0 8.0----29.56- 39.4-----
2024-02-23 06:18 amSSE 7.0 8.9----29.57- 39.4-----
2024-02-23 06:12 amSSE 8.0 8.9----29.56- 39.4-----
2024-02-23 06:06 amSSE 8.9 9.9----29.56- 39.2-----
2024-02-23 06:00 amSSE 9.9 12.0----29.57-0.10 39.0-----
2024-02-23 05:54 amSSE 9.9 12.0----29.57- 39.0-----
2024-02-23 05:48 am S 8.9 11.1----29.57- 38.7-----
2024-02-23 05:42 am S 8.0 8.9----29.57- 38.7-----
2024-02-23 05:36 am S 8.9 9.9----29.58- 38.7-----
2024-02-23 05:30 am S 8.9 11.1----29.59- 38.7-----
2024-02-23 05:24 am S 8.9 9.9----29.59- 38.5-----
2024-02-23 05:18 am S 8.0 9.9----29.59- 38.7-----
2024-02-23 05:12 am S 8.9 9.9----29.60- 38.7-----
2024-02-23 05:06 am S 7.0 8.0----29.61- 38.5-----
2024-02-23 05:00 am S 7.0 8.9----29.61-0.08 38.3-----
2024-02-23 04:54 am S 8.9 11.1----29.61- 38.3-----
2024-02-23 04:48 am S 9.9 12.0----29.60- 38.3-----
2024-02-23 04:42 am S 11.1 13.0----29.61- 38.3-----
2024-02-23 04:36 am S 12.0 15.0----29.61- 38.3-----
2024-02-23 04:30 am S 13.0 15.0----29.62- 38.3-----
2024-02-23 04:24 am S 13.0 15.0----29.62- 38.3-----
2024-02-23 04:18 am S 12.0 14.0----29.62- 38.3-----
2024-02-23 04:12 am S 11.1 13.0----29.62- 38.3-----
2024-02-23 04:06 am S 9.9 11.1----29.63- 38.3-----
2024-02-23 04:00 am S 9.9 12.0----29.64-0.07 38.3-----
2024-02-23 03:54 am S 11.1 12.0----29.64- 38.3-----
2024-02-23 03:48 am S 9.9 12.0----29.65- 38.3-----
2024-02-23 03:42 am S 11.1 12.0----29.65- 38.3-----
2024-02-23 03:36 amSSW 11.1 13.0----29.65- 38.5-----
2024-02-23 03:30 amSSW 12.0 15.0----29.66- 38.5-----
2024-02-23 03:24 amSSW 11.1 14.0----29.66- 38.5-----
2024-02-23 03:18 amSSW 9.9 12.0----29.66- 38.5-----
2024-02-23 03:12 am SW 8.9 12.0----29.66- 38.5-----
2024-02-23 03:06 amSSW 8.0 9.9----29.67- 38.3-----
2024-02-23 03:00 amSSW 7.0 8.9----29.67-0.08 38.3-----
2024-02-23 02:54 amSSW 8.0 11.1----29.67- 38.3-----
2024-02-23 02:48 amSSW 7.0 8.9----29.67- 38.3-----
2024-02-23 02:42 amSSW 8.9 11.1----29.68- 38.3-----
2024-02-23 02:36 amSSW 11.1 13.0----29.68- 38.3-----
2024-02-23 02:30 amSSW 9.9 13.0----29.69- 38.3-----
2024-02-23 02:24 amSSW 11.1 15.9----29.69- 38.3-----
2024-02-23 02:18 amSSW 12.0 15.9----29.69- 38.3-----
2024-02-23 02:12 amSSW 12.0 15.0----29.70- 38.1-----
2024-02-23 02:06 amSSW 12.0 13.0----29.70- 38.1-----
2024-02-23 02:00 amSSW 12.0 15.0----29.70-0.07 38.1-----
2024-02-23 01:54 amSSW 14.0 15.0----29.70- 38.1-----
2024-02-23 01:48 amSSW 12.0 14.0----29.70- 37.8-----
2024-02-23 01:42 am S 11.1 13.0----29.69- 37.8-----
2024-02-23 01:36 am S 12.0 12.0----29.69- 37.9-----
2024-02-23 01:30 am S 9.9 12.0----29.69- 37.9-----
2024-02-23 01:24 am S 9.9 12.0----29.69- 38.1-----
2024-02-23 01:18 amSSW 8.0 12.0----29.70- 38.1-----
2024-02-23 01:12 amSSW 9.9 12.0----29.70- 37.9-----
2024-02-23 01:06 am S 8.9 12.0----29.70- 37.9-----
2024-02-23 01:00 am S 8.9 11.1----29.71-0.09 37.9-----
2024-02-23 12:54 amSSW 9.9 12.0----29.71- 37.9-----
2024-02-23 12:48 amSSW 11.1 13.0----29.71- 37.9-----
2024-02-23 12:42 amSSW 8.9 12.0----29.72- 37.9-----
2024-02-23 12:36 amSSW 12.0 14.0----29.72- 37.9-----
2024-02-23 12:30 amSSW 11.1 14.0----29.72- 37.9-----
2024-02-23 12:24 amSSW 13.0 17.1----29.73- 37.9-----
2024-02-23 12:18 amSSW 13.0 15.0----29.72- 37.9-----
2024-02-23 12:12 amSSW 11.1 13.0----29.73- 37.8-----
2024-02-23 12:06 am SW 8.9 14.0----29.74- 37.9-----
2024-02-23 12:00 amWSW 11.1 13.0----29.75-0.06 37.9-----
2024-02-22 11:54 pmWSW 11.1 14.0----29.76- 37.9-----
2024-02-22 11:48 pm SW 9.9 13.0----29.76- 37.9-----
2024-02-22 11:42 pmWSW 9.9 15.0----29.76- 38.1-----
2024-02-22 11:36 pmWSW 11.1 14.0----29.76- 38.1-----
2024-02-22 11:30 pm SW 11.1 14.0----29.77- 38.1-----
2024-02-22 11:24 pmWSW 11.1 13.0----29.77- 38.1-----
2024-02-22 11:18 pmWSW 9.9 13.0----29.77- 38.3-----
2024-02-22 11:12 pmWSW 11.1 15.0----29.77- 38.3-----
2024-02-22 11:06 pmWSW 9.9 14.0----29.77- 38.3-----
2024-02-22 11:00 pm SW 11.1 14.0----29.77-0.05 38.1-----
2024-02-22 10:54 pm SW 9.9 14.0----29.77- 38.1-----
2024-02-22 10:48 pmWSW 11.1 15.9----29.78- 38.1-----
2024-02-22 10:42 pmWSW 8.0 12.0----29.78- 37.9-----
2024-02-22 10:36 pmWSW 11.1 14.0----29.78- 37.9-----
2024-02-22 10:30 pmWSW 8.9 11.1----29.79- 37.9-----
2024-02-22 10:24 pmWSW 8.9 12.0----29.79- 37.8-----
2024-02-22 10:18 pmWSW 8.9 12.0----29.79- 37.8-----
2024-02-22 10:12 pmWSW 12.0 15.9----29.79- 37.8-----
2024-02-22 10:06 pmWSW 12.0 15.0----29.80- 37.6-----
2024-02-22 10:00 pmWSW 9.9 13.0----29.79-0.04 37.6-----
2024-02-22 09:54 pmWSW 8.0 14.0----29.79- 37.4-----
2024-02-22 09:48 pmWSW 9.9 12.0----29.80- 37.4-----
2024-02-22 09:42 pmWSW 9.9 13.0----29.80- 37.2-----
2024-02-22 09:36 pmWSW 9.9 13.0----29.79- 37.2-----
2024-02-22 09:30 pmWSW 8.0 11.1----29.80- 37.0-----
2024-02-22 09:24 pmWSW 8.0 9.9----29.80- 37.0-----
2024-02-22 09:18 pm SW 9.9 12.0----29.80- 37.0-----
2024-02-22 09:12 pmWSW 8.9 12.0----29.81- 37.0-----
2024-02-22 09:06 pmWSW 11.1 13.0----29.81- 37.0-----
2024-02-22 09:00 pmWSW 9.9 14.0----29.82-0.02 37.0-----
2024-02-22 08:54 pmWSW 12.0 15.0----29.81- 36.9-----
2024-02-22 08:48 pmWSW 9.9 13.0----29.81- 36.9-----
2024-02-22 08:42 pmWSW 6.0 9.9----29.80- 36.9-----
2024-02-22 08:36 pmWSW 7.0 11.1----29.81- 36.9-----
2024-02-22 08:30 pm SW 8.9 11.1----29.81- 36.9-----
2024-02-22 08:24 pm SW 8.9 15.0----29.81- 36.7-----
2024-02-22 08:18 pm SW 11.1 14.0----29.81- 36.7-----
2024-02-22 08:12 pmWSW 9.9 14.0----29.81- 36.7-----
2024-02-22 08:06 pmWSW 9.9 12.0----29.82- 36.5-----
2024-02-22 08:00 pmWSW 8.0 12.0----29.82-0.04 36.5-----
2024-02-22 07:54 pmWSW 7.0 8.9----29.82- 36.5-----
2024-02-22 07:48 pmWSW 8.0 11.1----29.83- 36.3-----
2024-02-22 07:42 pmWSW 8.9 11.1----29.83- 36.3-----
2024-02-22 07:36 pmWSW 8.9 15.0----29.82- 36.3-----
2024-02-22 07:30 pmWSW 8.9 12.0----29.82- 36.3-----
2024-02-22 07:24 pmWSW 8.9 14.0----29.83- 36.3-----
2024-02-22 07:18 pm SW 8.9 14.0----29.83- 36.1-----
2024-02-22 07:12 pmWSW 8.0 11.1----29.83- 36.1-----
2024-02-22 07:06 pmWSW 9.9 12.0----29.83- 36.1-----
2024-02-22 07:00 pmWSW 9.9 13.0----29.83-0.04 36.1-----
2024-02-22 06:54 pmWSW 11.1 13.0----29.83- 36.0-----